PROFILE

 METAR AND TAF INFORMATION
ADDS - METARS form results

(0628 UTC 19 July 2019)
http://aviationweather.gov/metar/data/
 
RJBB 190600Z 25007KT 9999 -SHRA FEW003 SCT015 FEW025CB BKN040 25/24 Q1013 TEMPO 4000 SHRA BR
RJBB 190530Z 21004KT 170V240 9999 -SHRA FEW003 FEW025CB SCT040 BKN080 25/24 Q1013 TEMPO SHRA
TAF RJBB 190505Z 1906/2012 24007KT 8000 -SHRA FEW005 SCT025 BKN040 TEMPO 1906/1910 3000 SHRA BR FEW002 BKN008 BKN025 BECMG 1908/1910 04004KT TEMPO 1910/1913 4000 BR FEW002 BKN008 BKN025 BECMG 2003/2006 24008KT 

 AIRPORT MAP

 RUNWAY INFORMATION
Runway 06L Runway length 13123 ft Runway width 196 ft
Runway elevation 24 ft Runway displaced threshold 0 ft Runway heading 51
Runway 24R Runway length 13123 ft Runway width 196 ft
Runway elevation 32 ft Runway displaced threshold 0 ft Runway heading 231
Runway 06R Runway length 11483 ft Runway width 196 ft
Runway elevation 6 ft Runway displaced threshold 0 ft Runway heading 51
Runway 24L Runway length 11483 ft Runway width 196 ft
Runway elevation 15 ft Runway displaced threshold 0 ft Runway heading 231

 AIRPORT FREQUENCIES
Type APP Name APP Frequency 120.25 MHZ
Type ATIS Name ATIS Frequency 127.85 MHZ
Type CLD Name CLNC DEL Frequency 121.9 MHZ
Type DEP Name DEP Frequency 119.2 MHZ
Type GND Name GND Frequency 121.6 MHZ
Type TCA Name TCA Frequency 121.1 MHZ
Type TWR Name TWR Frequency 118.2 MHZ

 AIRPORT NEAR NAVIGATION AIDS
Type NDB Name Kansai Frequency 346 KHZ
Type VOR-DME Name Kansai Frequency 111800 KHZ
Type VOR-DME Name Shigi Frequency 111600 KHZ
Type VOR-DME Name Shinoda Frequency 112300 KHZ
Type VOR-DME Name Tomo Frequency 116400 KHZ